[[{"header":{"parameterUnit":"m.s-1","parameterCategory":2,"la1":30.2992,"la2":30.254,"lo1":-89.0895,"lo2":-89.0443,"dy":0.0025,"dx":0.0025,"nx":19,"ny":19,"refTime":"2026-05-16T21:00:00:Z","depth":"0","parameterNumber":2,"parameterNumberName":"U-component_of_CURRENTS"},"data":[0,0,0,0.4701,0.4704,0.4819,0.4819,0.4987,0.4988,0,0,0,0,0,0,0,0,0,0,0,0.4654,0.4655,0.4701,0.4704,0.4819,0.4819,0.4987,0.4988,0,0,0,0,0,0,0,0,0,0,0,0.4654,0.4655,0.4656,0.4705,0.4819,0.4819,0.4986,0.4893,0,0,0,0,0,0,0,0,0,0,0.4778,0.4732,0.4654,0.4656,0.4705,0.4819,0.4819,0.4888,0.4899,0.4943,0,0.4961,0,0.4987,0.5001,0.5001,0,0,0,0.4699,0.4723,0.4759,0.4656,0.4707,0.4818,0.4766,0.4894,0.4906,0.4957,0.4964,0.497,0.499,0.5002,0.5003,0.5224,0.5225,0,0,0.4692,0.4673,0.4751,0.4767,0.474,0.4762,0.4769,0.4901,0.4913,0.4965,0.4975,0.4992,0.5003,0.5004,0.5223,0.5224,0,0,0,0.4678,0.4668,0.47,0.4759,0.4784,0.4765,0.4774,0.4907,0.4919,0.4977,0.4994,0.5004,0.5006,0.5222,0.5224,0.5353,0,0,0,0.4674,0.4661,0.4697,0.4686,0.4781,0.4844,0.4776,0.4909,0.4925,0.4994,0.5004,0.5008,0.5221,0.5223,0.5347,0.538,0,0,0,0.4648,0.4658,0.4673,0.4685,0.4739,0.4843,0.4862,0.4913,0.4937,0.5001,0.5009,0.522,0.5223,0.5341,0.5371,0.5581,0,0,0,0.4622,0.4654,0.4672,0.4731,0.4738,0.4854,0.4861,0.4939,0.4995,0.5005,0.5221,0.5223,0.534,0.5366,0.5574,0.5476,0.5504,0,0,0.4648,0.4657,0.4697,0.4716,0.4817,0.4838,0.4999,0.5058,0.5052,0.5175,0.5181,0.5349,0.5371,0.558,0.5621,0.5644,0,0,0,0.4697,0.4709,0.4748,0.4813,0.4903,0.5017,0.5086,0.5147,0.5257,0.5099,0.5364,0.5373,0.5502,0.5427,0.5446,0.512,0.5235,0.5235,0.5235,0.4647,0.4721,0.4791,0.4892,0.4987,0.5155,0.5278,0.5374,0.5361,0.5428,0.5491,0.5746,0.5664,0.5678,0.5342,0.5517,0.5518,0.5518,0.5518,0.4657,0.4694,0.4813,0.4899,0.5059,0.52,0.546,0.5517,0.5763,0.564,0.5763,0.5577,0.5707,0.5341,0.5527,0.5525,0.5524,0.5524,0.5523,0.4592,0.4627,0.4693,0.4853,0.5029,0.5237,0.5503,0.5699,0.5842,0.5981,0.5963,0.5957,0.5632,0.6075,0.6076,0.6077,0.6078,0.6079,0.608,0.4496,0.4577,0.4645,0.4822,0.4932,0.5163,0.555,0.5769,0.604,0.6094,0.6094,0.5659,0.5917,0.5891,0.6097,0.6094,0.6091,0.609,0.6089,0.4426,0.4477,0.458,0.468,0.4936,0.5066,0.5462,0.5837,0.6136,0.6244,0.5834,0.6192,0.6159,0.6138,0.6118,0.6372,0.6372,0.6372,0.6371,0.4367,0.4406,0.4526,0.4664,0.4846,0.5033,0.5163,0.5451,0.5698,0.5677,0.5768,0.5526,0.5529,0.5444,0.5439,0.5397,0.5463,0.5461,0.5459,0.434,0.4398,0.4446,0.4593,0.4784,0.4903,0.4832,0.4741,0.5084,0.5391,0.5343,0.5382,0.4988,0.502,0.4847,0.4866,0.4784,0,0]},{"header":{"parameterUnit":"m.s-1","parameterCategory":2,"la1":30.2992,"la2":30.254,"lo1":-89.0895,"lo2":-89.0443,"dy":0.0025,"dx":0.0025,"nx":19,"ny":19,"refTime":"2026-05-16T21:00:00:Z","depth":"0","parameterNumber":3,"parameterNumberName":"V-component_of_CURRENTS"},"data":[0,0,0,0.0413,0.0413,0.0364,0.0363,0.0283,0.0282,0,0,0,0,0,0,0,0,0,0,0,0.0427,0.0427,0.0413,0.0413,0.0364,0.0363,0.0283,0.0282,0,0,0,0,0,0,0,0,0,0,0,0.0427,0.0427,0.0427,0.0413,0.0364,0.0363,0.0283,0.032,0,0,0,0,0,0,0,0,0,0,0.0369,0.0389,0.0427,0.0427,0.0412,0.0364,0.0363,0.0322,0.0318,0.0305,0,0.0306,0,0.0301,0.0278,0.0278,0,0,0,0.0396,0.0393,0.0384,0.0427,0.0412,0.0364,0.0381,0.032,0.0315,0.0299,0.0305,0.0302,0.0299,0.0277,0.0277,0.0335,0.0337,0,0,0.0399,0.041,0.0388,0.0382,0.0411,0.0383,0.038,0.0317,0.0314,0.0305,0.0301,0.0298,0.0277,0.0277,0.0334,0.0336,0,0,0,0.0418,0.0412,0.0405,0.0385,0.0382,0.0382,0.0378,0.0317,0.0316,0.03,0.0297,0.0277,0.0276,0.0333,0.0335,0.0506,0,0,0,0.0419,0.0424,0.0406,0.0411,0.0384,0.0352,0.0379,0.032,0.0313,0.0297,0.0277,0.0275,0.0332,0.0334,0.0499,0.0631,0,0,0,0.0428,0.0425,0.0424,0.0412,0.0399,0.0353,0.0347,0.0318,0.0312,0.0278,0.0275,0.0331,0.0334,0.0492,0.0618,0.0787,0,0,0,0.0433,0.0472,0.0424,0.0475,0.04,0.0447,0.0347,0.0355,0.0338,0.0276,0.0332,0.0335,0.049,0.061,0.0777,0.0982,0.1042,0,0,0.0496,0.048,0.0515,0.0473,0.0553,0.0452,0.0544,0.0463,0.0373,0.0345,0.0346,0.0501,0.0617,0.0785,0.1136,0.1192,0,0,0,0.0546,0.0575,0.0591,0.0619,0.0622,0.0653,0.0574,0.0552,0.0522,0.0376,0.0507,0.0577,0.0677,0.078,0.0824,0.0504,0.0347,0.0347,0.0347,0.0647,0.066,0.0743,0.0767,0.0796,0.0791,0.0821,0.0774,0.0653,0.0671,0.0718,0.0973,0.1082,0.1119,0.0784,0.0689,0.069,0.069,0.0691,0.079,0.085,0.0873,0.0957,0.0981,0.1046,0.1058,0.1001,0.1074,0.0901,0.0988,0.0958,0.1179,0.0804,0.0702,0.07,0.0698,0.0697,0.0696,0.0872,0.0907,0.0951,0.1077,0.1192,0.1223,0.1415,0.135,0.1273,0.1349,0.1461,0.1459,0.1133,0.1387,0.1388,0.139,0.1391,0.1392,0.1392,0.0938,0.0988,0.1101,0.1219,0.1326,0.1492,0.163,0.1739,0.1809,0.1726,0.1726,0.1205,0.1187,0.1163,0.1413,0.141,0.1407,0.1405,0.1404,0.1046,0.106,0.1235,0.1348,0.1625,0.1923,0.2033,0.2338,0.2383,0.2476,0.1767,0.1922,0.1908,0.187,0.1863,0.2281,0.2281,0.2281,0.2281,0.1107,0.1132,0.1379,0.1597,0.1877,0.2132,0.267,0.2865,0.2526,0.2231,0.1939,0.1735,0.1714,0.1668,0.1636,0.1614,0.1959,0.1958,0.1956,0.1191,0.1256,0.1448,0.1666,0.1996,0.2413,0.2978,0.3239,0.2527,0.1893,0.1454,0.1468,0.1099,0.1091,0.0952,0.0932,0.0872,0,0]}],[{"header":{"parameterUnit":"m.s-1","parameterCategory":2,"la1":30.2992,"la2":30.254,"lo1":-89.0895,"lo2":-89.0443,"dy":0.0025,"dx":0.0025,"nx":19,"ny":19,"refTime":"2026-05-16T21:00:00:Z","depth":"2","parameterNumber":2,"parameterNumberName":"U-component_of_CURRENTS"},"data":[0,0,0,0.3669,0.3671,0.3809,0.3809,0.3893,0.3894,0,0,0,0,0,0,0,0,0,0,0,0.3626,0.3627,0.3669,0.3672,0.3809,0.3809,0.3893,0.3894,0,0,0,0,0,0,0,0,0,0,0,0.3626,0.3627,0.3628,0.3672,0.3809,0.381,0.3893,0.3816,0,0,0,0,0,0,0,0,0,0,0.3695,0.3662,0.3627,0.3628,0.3673,0.3808,0.381,0.3813,0.382,0.3801,0,0.3822,0,0.3849,0.3896,0.3896,0,0,0,0.3685,0.3656,0.3691,0.3628,0.3674,0.3808,0.3751,0.3818,0.3826,0.381,0.3823,0.3827,0.3851,0.3896,0.3896,0.4052,0.4053,0,0,0.3678,0.3652,0.3686,0.3696,0.3707,0.3746,0.3755,0.3824,0.383,0.3824,0.383,0.3852,0.3896,0.3897,0.405,0.4052,0,0,0,0.3647,0.3647,0.3683,0.3692,0.3719,0.375,0.376,0.3828,0.3839,0.3831,0.3853,0.3896,0.3897,0.4049,0.4051,0.4154,0,0,0,0.3643,0.3628,0.3679,0.3666,0.3718,0.3786,0.3761,0.3835,0.3844,0.3853,0.3896,0.3897,0.4047,0.405,0.4148,0.4153,0,0,0,0.362,0.3625,0.3641,0.3664,0.3717,0.3786,0.3804,0.3838,0.3856,0.3896,0.3897,0.4046,0.4049,0.4142,0.4145,0.4332,0,0,0,0.359,0.3625,0.364,0.3698,0.3715,0.3809,0.3804,0.3861,0.3896,0.3897,0.4047,0.4051,0.414,0.414,0.4325,0.4093,0.4107,0,0,0.3618,0.3627,0.3667,0.3684,0.3744,0.3791,0.3893,0.3922,0.3949,0.4016,0.4021,0.415,0.4145,0.4331,0.4293,0.43,0,0,0,0.3667,0.3658,0.3686,0.3733,0.3815,0.3918,0.3954,0.3994,0.4116,0.3986,0.4192,0.4185,0.43,0.4146,0.4154,0.4067,0.4067,0.4066,0.4066,0.3611,0.3671,0.3722,0.38,0.3866,0.3992,0.4095,0.4175,0.4164,0.4261,0.4302,0.4548,0.4385,0.4388,0.436,0.436,0.4361,0.4361,0.4362,0.3616,0.3649,0.3732,0.3795,0.3934,0.404,0.4236,0.4299,0.4503,0.4434,0.4545,0.4299,0.4401,0.4371,0.4369,0.4368,0.4367,0.4366,0.4365,0.3555,0.3585,0.3653,0.3771,0.392,0.4089,0.4279,0.4445,0.46,0.471,0.4627,0.4621,0.4613,0.4821,0.4822,0.4823,0.4824,0.4824,0.4825,0.3486,0.3554,0.3609,0.3728,0.3826,0.4016,0.4343,0.4487,0.4663,0.4711,0.471,0.4704,0.4689,0.4643,0.4839,0.4836,0.4834,0.4833,0.4832,0.3396,0.3417,0.3509,0.3585,0.3774,0.381,0.4172,0.4397,0.4633,0.4658,0.474,0.4737,0.4692,0.468,0.4635,0.4819,0.4819,0.4819,0.4819,0.3305,0.3327,0.3403,0.3482,0.3583,0.3704,0.3739,0.391,0.4235,0.434,0.436,0.4147,0.4158,0.4072,0.4074,0.4011,0.4033,0.4032,0.403,0.3242,0.3299,0.328,0.3355,0.3446,0.3499,0.3371,0.3296,0.3585,0.3997,0.4197,0.4771,0.4502,0.4503,0.44,0.4393,0.4304,0,0]},{"header":{"parameterUnit":"m.s-1","parameterCategory":2,"la1":30.2992,"la2":30.254,"lo1":-89.0895,"lo2":-89.0443,"dy":0.0025,"dx":0.0025,"nx":19,"ny":19,"refTime":"2026-05-16T21:00:00:Z","depth":"2","parameterNumber":3,"parameterNumberName":"V-component_of_CURRENTS"},"data":[0,0,0,0.0234,0.0233,0.0187,0.0187,0.0084,0.0083,0,0,0,0,0,0,0,0,0,0,0,0.0247,0.0247,0.0234,0.0233,0.0187,0.0187,0.0084,0.0083,0,0,0,0,0,0,0,0,0,0,0,0.0247,0.0247,0.0247,0.0233,0.0187,0.0187,0.0085,0.0126,0,0,0,0,0,0,0,0,0,0,0.0175,0.0201,0.0247,0.0247,0.0233,0.0187,0.0187,0.0129,0.0124,0.0097,0,0.0099,0,0.0096,0.0077,0.0077,0,0,0,0.0218,0.0206,0.0194,0.0247,0.0233,0.0187,0.0204,0.0126,0.0121,0.0091,0.0098,0.0095,0.0094,0.0076,0.0076,0.0088,0.0089,0,0,0.022,0.0233,0.0199,0.0191,0.0231,0.0205,0.0202,0.0123,0.012,0.0098,0.0092,0.0092,0.0076,0.0075,0.0087,0.0088,0,0,0,0.0238,0.0235,0.0226,0.0195,0.0194,0.0204,0.0201,0.0123,0.0121,0.0091,0.0091,0.0075,0.0074,0.0086,0.0088,0.0227,0,0,0,0.0239,0.0246,0.0227,0.0233,0.0196,0.0165,0.0203,0.0126,0.0118,0.0092,0.0075,0.0073,0.0085,0.0087,0.0221,0.0311,0,0,0,0.0247,0.0247,0.0245,0.0234,0.0221,0.0167,0.0159,0.0124,0.0118,0.0076,0.0073,0.0085,0.0087,0.0216,0.0301,0.0412,0,0,0,0.0255,0.0287,0.0246,0.0285,0.0222,0.0249,0.016,0.0156,0.0131,0.0075,0.0085,0.0087,0.0214,0.0295,0.0405,0.0487,0.0526,0,0,0.0307,0.0293,0.032,0.0283,0.0342,0.0253,0.0307,0.0225,0.0152,0.0103,0.0103,0.0223,0.0301,0.041,0.0605,0.064,0,0,0,0.0346,0.0369,0.038,0.0399,0.0391,0.0413,0.0325,0.0289,0.0251,0.0148,0.0225,0.0271,0.0335,0.037,0.0398,0.0097,0.0097,0.0097,0.0096,0.0435,0.044,0.0509,0.0523,0.0537,0.0509,0.0516,0.0452,0.0345,0.0355,0.0384,0.0567,0.0605,0.0627,0.0368,0.0368,0.0369,0.0369,0.037,0.0553,0.0604,0.0618,0.0684,0.0696,0.0733,0.0703,0.0643,0.0642,0.0517,0.0573,0.0516,0.0667,0.0381,0.0379,0.0377,0.0376,0.0375,0.0374,0.062,0.0652,0.0687,0.0792,0.0893,0.0902,0.1049,0.0947,0.0815,0.0849,0.0873,0.087,0.0673,0.0872,0.0873,0.0873,0.0874,0.0875,0.0875,0.0675,0.0719,0.0822,0.0926,0.1036,0.1187,0.1256,0.1288,0.1206,0.1063,0.1063,0.0737,0.0721,0.0702,0.089,0.0887,0.0885,0.0884,0.0883,0.0763,0.0777,0.0945,0.1057,0.134,0.16,0.1643,0.1715,0.1658,0.162,0.1181,0.1169,0.1141,0.1116,0.1107,0.1388,0.1388,0.1388,0.1388,0.0818,0.0838,0.1084,0.1311,0.1599,0.1806,0.2108,0.2025,0.1745,0.1505,0.1499,0.1383,0.1361,0.1336,0.1306,0.1295,0.1626,0.1627,0.1627,0.0891,0.0961,0.1154,0.1381,0.1729,0.2061,0.2324,0.2211,0.1765,0.163,0.1477,0.1417,0.1224,0.1198,0.113,0.1094,0.1065,0,0]}],[{"header":{"parameterUnit":"m.s-1","parameterCategory":2,"la1":30.2992,"la2":30.254,"lo1":-89.0895,"lo2":-89.0443,"dy":0.0025,"dx":0.0025,"nx":19,"ny":19,"refTime":"2026-05-16T21:00:00:Z","depth":"4","parameterNumber":2,"parameterNumberName":"U-component_of_CURRENTS"},"data":[0,0,0,0.2306,0.2311,0.2511,0.2511,0.2661,0.2662,0,0,0,0,0,0,0,0,0,0,0,0.2245,0.2247,0.2306,0.2311,0.251,0.2511,0.266,0.2662,0,0,0,0,0,0,0,0,0,0,0,0.2245,0.2247,0.2249,0.2312,0.251,0.2511,0.266,0.2534,0,0,0,0,0,0,0,0,0,0,0.2352,0.232,0.2246,0.2249,0.2313,0.251,0.2511,0.2529,0.2542,0.2542,0,0.2596,0,0.2632,0.267,0.267,0,0,0,0.2303,0.231,0.2359,0.225,0.2315,0.251,0.2418,0.2537,0.2551,0.2559,0.2598,0.2605,0.2634,0.2671,0.2671,0.2828,0.2829,0,0,0.2292,0.228,0.235,0.2369,0.2395,0.2412,0.2425,0.2547,0.2573,0.2599,0.2609,0.2636,0.2672,0.2673,0.2828,0.2829,0,0,0,0.2266,0.2273,0.2321,0.2362,0.2407,0.2418,0.2432,0.2568,0.2585,0.261,0.2638,0.2672,0.2674,0.2827,0.2828,0.2901,0,0,0,0.2259,0.2258,0.2316,0.2311,0.2406,0.2506,0.2451,0.2576,0.2591,0.2637,0.2672,0.2675,0.2826,0.2828,0.2897,0.2911,0,0,0,0.2231,0.2255,0.2285,0.231,0.2399,0.2506,0.253,0.2581,0.2608,0.2671,0.2675,0.2825,0.2827,0.2894,0.2905,0.2989,0,0,0,0.2199,0.2241,0.2286,0.2348,0.2397,0.2503,0.2529,0.2623,0.268,0.2673,0.2826,0.2828,0.2893,0.2902,0.2985,0.2613,0,0,0,0.2217,0.2244,0.2275,0.2319,0.2401,0.2474,0.258,0.267,0.2706,0.2775,0.278,0.2898,0.2905,0.2988,0.2726,0,0,0,0,0.2257,0.2277,0.2312,0.2382,0.247,0.2571,0.2662,0.2725,0.2846,0.2753,0.2916,0.2918,0.2968,0.274,0.2837,0.2837,0.2837,0.2836,0.2836,0.2236,0.2282,0.2327,0.2401,0.2493,0.2648,0.2745,0.285,0.2878,0.2958,0.2992,0.3119,0.2881,0.3016,0.3017,0.3017,0.3017,0.3018,0.3018,0.2222,0.2225,0.2324,0.2388,0.2519,0.2642,0.2845,0.2925,0.3095,0.3078,0.3125,0.2848,0.3026,0.3024,0.3023,0.3022,0.3021,0.3021,0.3021,0.2157,0.2159,0.223,0.233,0.2482,0.2666,0.2827,0.3012,0.3154,0.3224,0.3016,0.318,0.3159,0.328,0.328,0.3281,0.3281,0.3281,0.3282,0.2052,0.211,0.2137,0.2273,0.2343,0.254,0.2846,0.2957,0.3151,0.3053,0.3269,0.3208,0.3199,0.3175,0.3289,0.3287,0.3286,0.3286,0.3285,0.1922,0.1989,0.1993,0.2041,0.2186,0.23,0.2636,0.2817,0.2917,0.2926,0.2963,0.2977,0.2918,0.2918,0.2881,0.2912,0.2907,0.2903,0,0.183,0.1863,0.1857,0.1858,0.1905,0.2133,0.2207,0.2419,0.2632,0.2545,0.2902,0.2934,0.2944,0.2868,0.2861,0.2809,0,0,0,0.1736,0.1755,0.17,0.173,0.1746,0.1936,0.2219,0.2225,0.2598,0.2615,0.2794,0.2822,0.3066,0.331,0.3255,0.3244,0.3203,0,0]},{"header":{"parameterUnit":"m.s-1","parameterCategory":2,"la1":30.2992,"la2":30.254,"lo1":-89.0895,"lo2":-89.0443,"dy":0.0025,"dx":0.0025,"nx":19,"ny":19,"refTime":"2026-05-16T21:00:00:Z","depth":"4","parameterNumber":3,"parameterNumberName":"V-component_of_CURRENTS"},"data":[0,0,0,0.0177,0.0177,0.0147,0.0147,0.0072,0.0071,0,0,0,0,0,0,0,0,0,0,0,0.0184,0.0184,0.0177,0.0177,0.0147,0.0147,0.0072,0.0071,0,0,0,0,0,0,0,0,0,0,0,0.0184,0.0184,0.0184,0.0177,0.0147,0.0147,0.0072,0.01,0,0,0,0,0,0,0,0,0,0,0.0132,0.0151,0.0184,0.0184,0.0177,0.0148,0.0147,0.0102,0.0099,0.0079,0,0.0083,0,0.0083,0.0067,0.0067,0,0,0,0.0162,0.0154,0.0147,0.0184,0.0177,0.0148,0.0156,0.01,0.0096,0.0075,0.0082,0.008,0.0082,0.0067,0.0066,0.0064,0.0065,0,0,0.0164,0.0173,0.015,0.0145,0.0179,0.0158,0.0156,0.0098,0.0097,0.0082,0.0078,0.008,0.0066,0.0066,0.0064,0.0064,0,0,0,0.0178,0.0175,0.0169,0.0148,0.015,0.0157,0.0155,0.0099,0.0098,0.0077,0.0079,0.0066,0.0065,0.0063,0.0064,0.0174,0,0,0,0.0179,0.0184,0.017,0.0175,0.0151,0.0131,0.0157,0.0102,0.0096,0.008,0.0066,0.0064,0.0063,0.0064,0.017,0.0244,0,0,0,0.0183,0.0184,0.0185,0.0176,0.017,0.0132,0.0127,0.0101,0.0097,0.0067,0.0064,0.0062,0.0063,0.0167,0.0236,0.0267,0,0,0,0.0188,0.021,0.0185,0.0213,0.0171,0.019,0.0127,0.0127,0.0108,0.0065,0.0063,0.0064,0.0165,0.0232,0.0262,0.0295,0,0,0,0.0223,0.0214,0.0234,0.0211,0.0257,0.0192,0.0231,0.0175,0.0117,0.0075,0.0075,0.0172,0.0236,0.0266,0.0362,0,0,0,0,0.025,0.0268,0.0277,0.0295,0.0291,0.0309,0.0246,0.0216,0.0183,0.0113,0.0164,0.0201,0.0216,0.0222,0.0069,0.0069,0.0069,0.0069,0.0069,0.031,0.0316,0.0368,0.0383,0.0398,0.0379,0.0379,0.0325,0.025,0.0253,0.0285,0.0379,0.039,0.0262,0.0262,0.0263,0.0263,0.0263,0.0264,0.0389,0.0426,0.045,0.0503,0.0519,0.0552,0.0518,0.0471,0.0446,0.0374,0.0381,0.0331,0.0274,0.0272,0.0271,0.0269,0.0269,0.0268,0.0267,0.043,0.0454,0.049,0.0584,0.0676,0.0691,0.077,0.0699,0.0575,0.0586,0.0554,0.0452,0.0449,0.0577,0.0577,0.0578,0.0578,0.0579,0.0579,0.0458,0.0499,0.0585,0.0687,0.0787,0.0905,0.0925,0.0899,0.0777,0.0703,0.0621,0.0484,0.0474,0.0466,0.0586,0.0585,0.0584,0.0583,0.0583,0.0505,0.0533,0.0664,0.0764,0.0997,0.1091,0.1117,0.1034,0.0994,0.0903,0.074,0.073,0.0691,0.0675,0.0672,0.0859,0.086,0.0861,0,0.054,0.056,0.0753,0.0934,0.1126,0.1209,0.1222,0.117,0.0989,0.0977,0.0953,0.0773,0.0763,0.072,0.0708,0.0707,0,0,0,0.0586,0.0639,0.0783,0.0962,0.1192,0.123,0.1231,0.1181,0.1034,0.0985,0.0884,0.0878,0.0748,0.0608,0.0524,0.0512,0.0494,0,0]}]]